Location: Austin
(30.3000°N, 97.7500°W)
Time: 10:31:33
(UTC-05:00)

USA 238 DEB - Pass Details

Date: 26 May 2023
Orbit: 943 x 1270 km, 63.4° (Epoch: 22 May)

Event Time Altitude Azimuth Distance (km) Brightness Sun altitude
Rises 21:13:11 0° 185° (S) 3,588 6.2 -10.0°
Reaches altitude 10° 21:15:52 10° 177° (S) 2,653 5.5 -10.5°
Maximum altitude 21:21:27 37° 111° (ESE) 1,454 3.9 -11.5°
Drops below altitude 10° 21:27:16 10° 47° (NE) 2,772 5.8 -12.5°
Sets 21:30:07 0° 39° (NE) 3,770 6.5 -13.0°
